Ainsworth, NE

6:14 PM CDT on October 19, 2019 (GMT -0500)
Ainsworth Municipal

Weather History for KANW - August, 2019

Change the Weather History Date:

Wednesday, August 28, 2019

  Actual Average Record
Temperature  
Mean Temperature 62 °F -  
Max Temperature 79 °F 83 °F 106 °F (2012)
Min Temperature 46 °F 58 °F 50 °F (2004)
Degree Days  
Heating Degree Days 2    
Growing Degree Days 12 (Base 50)    
Moisture  
Dew Point 53 °F    
Average Humidity 71    
Maximum Humidity 100    
Minimum Humidity 35    
Precipitation  
Precipitation 0.00 in - - ()
Sea Level Pressure  
Sea Level Pressure 30.05 in    
Wind  
Wind Speed 4 mph ()    
Max Wind Speed 9 mph    
Max Gust Speed -    
Visibility 9.6 miles    
Events      
Averages and records for this station are not official NWS values.
T = Trace of Precipitation, MM = Missing Value Source: Averaged Metar Reports

Daily Weather History Graph

Daily Weather History Graph

Search for Another Location

Airport or City:

Astronomy

Aug. 28, 2019 Rise Set
Actual Time 7:00 AM CDT 8:21 PM CDT
Civil Twilight 6:31 AM CDT 8:50 PM CDT
Nautical Twilight 5:55 AM CDT 9:25 PM CDT
Astronomical Twilight 5:18 AM CDT 10:02 PM CDT
Moon 4:30 AM CDT (8/28) 7:37 PM CDT (8/28)
Length of Visible Light 14h 19m
Length of Day
13h 20m
Waning Crescent, 4% of the Moon is Illuminated
Aug 28
Waning Crescent
Aug 30
New
Sep 5
First Quarter
Sep 13
Full
Sep 21
Last Quarter

Hourly Weather History & Observations

Time (CDT) Temp. Dew Point Humidity Pressure Visibility Wind Dir Wind Speed Gust Speed Precip Events Conditions
12:15 AM 51.6 °F 44.1 °F 75% 30.11 in 10.0 mi West 4.6 mph - N/A   Clear
12:35 AM 50.5 °F 44.6 °F 80% 30.11 in 10.0 mi WSW 8.1 mph - N/A   Clear
12:55 AM 50.5 °F 44.8 °F 81% 30.11 in 10.0 mi WSW 5.8 mph - N/A   Clear
1:35 AM 50.0 °F 44.8 °F 82% 30.12 in 10.0 mi West 4.6 mph - N/A   Clear
1:55 AM 49.8 °F 44.2 °F 81% 30.12 in 10.0 mi West 5.8 mph - N/A   Clear
2:15 AM 49.1 °F 44.6 °F 84% 30.12 in 10.0 mi West 4.6 mph - N/A   Clear
2:35 AM 49.5 °F 44.2 °F 82% 30.12 in 10.0 mi West 5.8 mph - N/A   Clear
2:55 AM 49.5 °F 44.2 °F 82% 30.12 in 10.0 mi West 5.8 mph - N/A   Clear
3:15 AM 48.0 °F 44.4 °F 87% 30.13 in 10.0 mi WSW 4.6 mph - N/A   Clear
3:35 AM 47.3 °F 45.9 °F 95% 30.12 in 10.0 mi WSW 4.6 mph - N/A   Clear
3:50 AM 46.8 °F 45.1 °F 94% 30.12 in 10.0 mi SW 4.6 mph - N/A   Clear
4:15 AM 47.3 °F 46.8 °F 98% 30.13 in 10.0 mi SW 4.6 mph - N/A   Clear
4:35 AM 48.2 °F 45.7 °F 91% 30.12 in 10.0 mi West 3.5 mph - N/A   Clear
4:55 AM 47.5 °F 45.5 °F 93% 30.12 in 10.0 mi WSW 3.5 mph - N/A   Clear
5:15 AM 47.7 °F 45.7 °F 93% 30.12 in 10.0 mi West 3.5 mph - N/A   Clear
5:35 AM 48.2 °F 44.1 °F 86% 30.12 in 10.0 mi WSW 4.6 mph - N/A   Clear
5:55 AM 48.0 °F 43.9 °F 86% 30.11 in 10.0 mi WNW 3.5 mph - N/A   Clear
6:15 AM 47.1 °F 45.0 °F 92% 30.12 in 10.0 mi WSW 4.6 mph - N/A   Clear
6:35 AM 47.7 °F 44.8 °F 90% 30.13 in 10.0 mi SW 5.8 mph - N/A   Clear
6:55 AM 47.8 °F 45.0 °F 90% 30.13 in 10.0 mi SW 3.5 mph - N/A   Clear
7:15 AM 46.8 °F 44.8 °F 93% 30.12 in 10.0 mi WSW 3.5 mph - N/A   Clear
7:35 AM 47.7 °F 45.5 °F 92% 30.12 in 10.0 mi SW 3.5 mph - N/A   Clear
7:55 AM 49.6 °F 46.6 °F 89% 30.12 in 10.0 mi Calm Calm - N/A   Clear
8:15 AM 52.2 °F 47.1 °F 83% 30.12 in 10.0 mi Calm Calm - N/A   Clear
8:35 AM 54.7 °F 47.8 °F 78% 30.11 in 10.0 mi WSW 4.6 mph - N/A   Clear
8:50 AM 56.3 °F 48.7 °F 76% 30.11 in 10.0 mi Calm Calm - N/A   Clear
9:15 AM 59.0 °F 48.6 °F 68% 30.11 in 10.0 mi WSW 3.5 mph - N/A   Clear
9:35 AM 61.9 °F 49.1 °F 63% 30.10 in 10.0 mi Calm Calm - N/A   Clear
9:55 AM 64.4 °F 50.0 °F 59% 30.10 in 10.0 mi Calm Calm - N/A   Clear
10:15 AM 66.4 °F 47.7 °F 51% 30.10 in 10.0 mi SSW 4.6 mph - N/A   Clear
10:35 AM 68.4 °F 46.9 °F 46% 30.10 in 10.0 mi SW 3.5 mph - N/A   Clear
10:55 AM 70.0 °F 44.4 °F 40% 30.10 in 10.0 mi SW 3.5 mph - N/A   Clear
11:15 AM 71.2 °F 43.0 °F 36% 30.10 in 10.0 mi South 5.8 mph - N/A   Clear
11:35 AM 71.8 °F 42.6 °F 35% 30.09 in 10.0 mi SSW 6.9 mph - N/A   Clear
11:55 AM 73.4 °F 46.9 °F 39% 30.09 in 10.0 mi SSW 8.1 mph - N/A   Clear
12:15 PM 73.0 °F 49.1 °F 43% 30.08 in 10.0 mi SW 4.6 mph - N/A   Clear
12:35 PM 73.6 °F 50.9 °F 45% 30.08 in 10.0 mi South 3.5 mph - N/A   Clear
12:55 PM 74.3 °F 52.3 °F 46% 30.07 in 10.0 mi SW 3.5 mph - N/A   Clear
1:15 PM 74.7 °F 51.8 °F 45% 30.06 in 10.0 mi SSW 3.5 mph - N/A   Clear
1:35 PM 75.2 °F 53.6 °F 47% 30.05 in 10.0 mi WSW 3.5 mph - N/A   Clear
1:55 PM 76.3 °F 55.2 °F 48% 30.04 in 10.0 mi SE 3.5 mph - N/A   Clear
2:15 PM 75.9 °F 55.6 °F 49% 30.04 in 10.0 mi Calm Calm - N/A   Clear
2:35 PM 77.0 °F 56.3 °F 49% 30.04 in 10.0 mi SSE 4.6 mph - N/A   Clear
2:55 PM 76.3 °F 54.7 °F 47% 30.03 in 10.0 mi Calm Calm - N/A   Clear
3:15 PM 77.2 °F 56.1 °F 48% 30.03 in 10.0 mi SSE 4.6 mph - N/A   Clear
3:35 PM 77.9 °F 56.3 °F 47% 30.02 in 10.0 mi SSW 4.6 mph - N/A   Clear
3:55 PM 77.9 °F 55.8 °F 46% 30.02 in 10.0 mi Calm Calm - N/A   Clear
4:15 PM 78.6 °F 58.3 °F 50% 30.01 in 10.0 mi East 4.6 mph - N/A   Clear
4:35 PM 78.6 °F 56.8 °F 47% 30.01 in 2.5 mi East 6.9 mph - N/A   Haze
4:55 PM 78.4 °F 57.9 °F 49% 29.99 in 0.5 mi SE 5.8 mph - N/A   Haze
5:15 PM 78.3 °F 59.5 °F 52% 29.99 in 0.5 mi ESE 5.8 mph - N/A   Haze
5:35 PM 79.5 °F 55.0 °F 43% 29.98 in 10.0 mi South 3.5 mph - N/A   Clear
5:55 PM 79.3 °F 55.8 °F 44% 29.98 in 10.0 mi South 8.1 mph - N/A   Clear
6:15 PM 79.3 °F 57.9 °F 48% 29.97 in 10.0 mi South 6.9 mph - N/A   Clear
6:35 PM 78.6 °F 58.3 °F 50% 29.96 in 10.0 mi South 8.1 mph - N/A   Clear
6:55 PM 78.1 °F 59.5 °F 53% 29.96 in 10.0 mi South 5.8 mph - N/A   Clear
7:15 PM 77.2 °F 61.0 °F 57% 29.95 in 10.0 mi SSE 4.6 mph - N/A   Clear
7:35 PM 75.7 °F 62.2 °F 63% 29.94 in 10.0 mi SSE 4.6 mph - N/A   Clear
7:55 PM 73.8 °F 61.9 °F 66% 29.94 in 10.0 mi SSE 6.9 mph - N/A   Clear
8:15 PM 71.2 °F 62.6 °F 74% 29.94 in 10.0 mi SSE 5.8 mph - N/A   Clear
8:35 PM 69.1 °F 63.5 °F 82% 29.94 in 10.0 mi SE 5.8 mph - N/A   Clear
8:55 PM 66.6 °F 64.4 °F 93% 29.94 in 10.0 mi SE 4.6 mph - N/A   Clear
9:15 PM 66.6 °F 65.1 °F 95% 29.94 in 10.0 mi SE 5.8 mph - N/A   Clear
9:35 PM 66.7 °F 65.7 °F 96% 29.94 in 10.0 mi SSE 5.8 mph - N/A   Clear
9:55 PM 67.5 °F 66.2 °F 96% 29.94 in 10.0 mi SSE 6.9 mph - N/A   Clear
10:15 PM 67.5 °F 67.1 °F 99% 29.94 in 10.0 mi SSE 6.9 mph - N/A   Clear
10:35 PM 67.8 °F 67.8 °F 100% 29.94 in 10.0 mi South 9.2 mph - N/A   Clear
10:55 PM 67.6 °F 67.6 °F 100% 29.94 in 10.0 mi South 9.2 mph - N/A   Clear
11:15 PM 67.3 °F 67.3 °F 100% 29.92 in 10.0 mi South 9.2 mph - N/A   Clear
11:35 PM 67.1 °F 67.1 °F 100% 29.92 in 10.0 mi South 9.2 mph - N/A   Clear
11:55 PM 66.2 °F 66.2 °F 100% 29.92 in 10.0 mi South 9.2 mph - N/A   Clear